Weather History for Jerome, ID

Change the Weather History Date:

Saturday, November 2, 2013

  Actual Average Record
Temperature  
Mean Temperature 49 °F 42 °F  
Max Temperature 65 °F 53 °F 73 °F (1949)
Min Temperature 32 °F 33 °F 10 °F (1951)
Degree Days  
Heating Degree Days 16 22  
Month to date heating degree days 35 44  
Since 1 July heating degree days 726 743  
Cooling Degree Days 0 0  
Month to date cooling degree days 0 0  
Year to date cooling degree days 904 510  
Moisture  
Dew Point 32 °F    
Average Humidity 59    
Maximum Humidity 92    
Minimum Humidity 26    
Precipitation  
Precipitation 0.04 in 0.03 in 0.52 in (2008)
Month to date precipitation 0.04 0.06  
Year to date precipitation 3.14 8.16  
Sea Level Pressure  
Sea Level Pressure 29.94 in    
Wind  
Wind Speed 13 mph (NNE)    
Max Wind Speed 33 mph    
Max Gust Speed 41 mph    
Visibility 10 miles    
Events Rain    
T = Trace of Precipitation, MM = Missing Value Source: NWS Daily Summary

Daily Weather History Graph

Daily Weather History Graph

Search for Another Location

Airport:

Trip Planner

Search our weather history database for the weather conditions in past years. The results will help you decide how hot, cold, wet, or windy it might be!

Date:

Astronomy

Nov. 02, 2013 Rise Set
Actual Time 8:13 AM MDT 6:28 PM MDT
Civil Twilight 7:43 AM MDT 6:58 PM MDT
Nautical Twilight 7:10 AM MDT 7:31 PM MDT
Astronomical Twilight 6:37 AM MDT 8:04 PM MDT
Moon 7:14 AM MDT (11/2) 6:03 PM MDT (11/2)
Length of Visible Light 11h 14m
Length of Day
10h 15m
Waning Crescent, 1% of the Moon is Illuminated
Nov 2
Waning Crescent
Nov 3
New
Nov 9
First Quarter
Nov 17
Full
Nov 25
Last Quarter

Hourly Weather History & Observations

Time (MDT) Temp. Windchill Dew Point Humidity Pressure Visibility Wind Dir Wind Speed Gust Speed Precip Events Conditions
12:53 AM 42.1 °F 35.2 °F 33.1 °F 70% 30.14 in 10.0 mi ENE 12.7 mph - N/A   Clear
1:53 AM 42.1 °F 35.7 °F 33.1 °F 70% 30.11 in 10.0 mi ENE 11.5 mph - N/A   Clear
2:53 AM 34.0 °F 25.0 °F 30.9 °F 89% 30.11 in 10.0 mi NE 12.7 mph - N/A   Clear
3:53 AM 33.1 °F 23.9 °F 30.0 °F 89% 30.08 in 10.0 mi NE 12.7 mph - N/A   Clear
4:53 AM 32.0 °F 22.1 °F 30.0 °F 92% 30.07 in 10.0 mi NE 13.8 mph - N/A   Clear
5:53 AM 32.0 °F 23.0 °F 30.0 °F 92% 30.06 in 10.0 mi NNE 11.5 mph - N/A   Clear
6:53 AM 32.0 °F 24.2 °F 28.9 °F 88% 30.06 in 10.0 mi NE 9.2 mph - N/A   Clear
7:53 AM 33.1 °F 24.9 °F 28.9 °F 85% 30.04 in 10.0 mi ENE 10.4 mph - N/A   Clear
8:53 AM 35.1 °F 28.6 °F 30.0 °F 82% 30.02 in 10.0 mi NNE 8.1 mph - N/A   Clear
9:53 AM 39.9 °F 32.5 °F 32.0 °F 73% 30.01 in 10.0 mi NE 12.7 mph - N/A   Clear
10:53 AM 48.0 °F - 36.0 °F 63% 29.97 in 10.0 mi NNE 10.4 mph - N/A   Clear
11:53 AM 55.0 °F - 34.0 °F 45% 29.92 in 10.0 mi ENE 9.2 mph - N/A   Clear
12:53 PM 59.0 °F - 33.1 °F 38% 29.88 in 10.0 mi NE 9.2 mph - N/A   Clear
1:53 PM 62.1 °F - 32.0 °F 32% 29.82 in 10.0 mi North 9.2 mph - N/A   Clear
2:53 PM 63.0 °F - 28.9 °F 28% 29.79 in 10.0 mi West 6.9 mph - N/A   Clear
3:53 PM 64.0 °F - 28.9 °F 27% 29.76 in 10.0 mi WSW 11.5 mph - N/A   Clear
4:53 PM 60.1 °F - 30.0 °F 32% 29.75 in 10.0 mi WSW 13.8 mph - N/A   Scattered Clouds
5:53 PM 57.9 °F - 30.9 °F 36% 29.75 in 10.0 mi WSW 10.4 mph 18.4 mph N/A   Overcast
6:53 PM 48.0 °F - 35.1 °F 61% 29.83 in 9.0 mi West 28.8 mph 40.3 mph N/A   Overcast
7:53 PM 45.0 °F 37.4 °F 34.0 °F 65% 29.87 in 10.0 mi West 18.4 mph - 0.00 in   Overcast
8:53 PM 42.1 °F 34.2 °F 37.9 °F 85% 29.88 in 10.0 mi SW 16.1 mph - 0.00 in Rain Light Rain
9:53 PM 42.1 °F 35.7 °F 37.9 °F 85% 29.88 in 10.0 mi South 11.5 mph - 0.01 in Rain Light Rain
10:53 PM 42.1 °F 35.7 °F 37.0 °F 82% 29.85 in 10.0 mi SSW 11.5 mph - 0.00 in Rain Light Rain
11:53 PM 41.0 °F 33.5 °F 37.0 °F 86% 29.85 in 10.0 mi SW 13.8 mph - 0.03 in   Overcast